Погода в Малячкином

Россия / Самарская область     53°23′24″N   48°35′30″E
темп.,
°C
ветер,
м/с
пор.,
м/с
влажн.,
%
обл.,
%
осадки,
мм/ч
давл.,
гПа
погр.,
м
20 мая, пт
пт2001:00+6з227635 0.0 101115
04:00+5з118799 0.0 101011
07:00+7зсз238595 0.6 1011209
10:00+10сз4463100 0.8 10101165
13:00+12сз5656100 0.2 10091522
16:00+11ссз675898 0.8 10091456
19:00+8с696793 0.4 1009997
22:00+5ссз510775 0.4 1010523
21 мая, сб
сб2101:00+3сз412825 0.0 1009393
04:00+3сз512845 0.0 1009391
07:00+4сз711805 0.0 1009541
10:00+8ссз8106274 0.1 10091629
13:00+9ссз71057100 0.7 10081850
16:00+9ссз7960100 1.4 10081485
19:00+8ссз4768100 0.4 1008856
22:00+5сз128189 0.5 100811
22 мая, вс
вс2201:00+3з228744 0.0 100713
04:00+2з228593 0.0 100642
07:00+4зсз358089 0.0 1005284
10:00+8зсз346096 0.0 10031389
13:00+10з2349100 0.0 10021628
16:00+11ссз1250100 0.1 10001558
19:00+9вюв226686 0.1 999644
22:00+7вюв1177100 0.3 99912
23 мая, пн
пн2301:00+5ссв2479100 0.1 998105
04:00+4с2481100 0.1 998101
07:00+5ссз357535 0.0 999410
10:00+8сз465642 0.0 9991390
13:00+8зсз5655100 0.0 10001334
16:00+8зсз5760100 0.1 10021300
19:00+8з4769100 0.1 10021055
22:00+4зюз37805 0.1 1003152
24 мая, вт
вт2401:00+4зюз4108581 0.0 1004222
04:00+3зюз412855 0.0 1004273
07:00+6з6107649 0.0 1004532
10:00+9зсз585492 0.0 10061334
13:00+11зсз584898 0.0 10061874
16:00+10сз5560100 0.0 10071165
19:00+7ссз4678100 0.1 1008475
22:00+5сз268281 0.1 1009205